This demonstration page uses our WeatherBlox Daily Observations layout. Learn more.

Left ArrowRight Arrow

Hourly Observations for June 5, 2016

Temp ( °F °C ) Dew Point ( °F °C ) Humidity (%) Winds ( mph kmh ) Pressure ( in mb ) Visibility ( mi km ) Precip ( " mm )
12:53 am 00:53 Clear 80 26.7 59 15 49 49 NNW 7 11 29.83 1010 10 16 0.00 0.00
1:53 am 01:53 Mostly Clear 80 26.7 57 13.9 45 45 N 12 19 29.83 1010 10 16 0.00 0.00
2:53 am 02:53 Mostly Clear 79 26.1 57 13.9 47 47 N 6 9 29.80 1009 10 16 0.00 0.00
3:53 am 03:53 Mostly Clear 80 26.7 56 13.3 44 44 SSW 14 22 29.81 1010 10 16 0.00 0.00
4:53 am 04:53 Clear 80 26.7 53 11.7 39 39 WNW 7 11 29.78 1009 10 16 0.00 0.00
5:53 am 05:53 Sunny 75 23.9 57 13.9 54 54 E 3 6 29.80 1009 10 16 0.00 0.00
6:53 am 06:53 Sunny 75 23.9 58 14.4 55 55 NNW 6 9 29.82 1010 10 16 0.00 0.00
7:53 am 07:53 Sunny 76 24.4 58 14.4 54 54 Calm 29.82 1010 10 16 0.00 0.00
8:53 am 08:53 Sunny 79 26.1 59 15 50 50 Calm 29.83 1010 10 16 0.00 0.00
9:53 am 09:53 Sunny 80 26.7 61 16.1 52 52 NW 3 6 29.84 1010 10 16 0.00 0.00
10:53 am 10:53 Sunny 84 28.9 59 15 43 43 VRB 3 6 29.83 1010 10 16 0.00 0.00
11:53 am 11:53 Sunny 89 31.7 56 13.3 33 33 Calm 29.81 1009 10 16 0.00 0.00
12:53 pm 12:53 Sunny 92 33.3 53 11.7 27 27 VRB 3 6 29.79 1009 10 16 0.00 0.00
1:53 pm 13:53 Sunny 95 35 48 8.9 20 20 undefined N/A 29.78 1008 10 16 0.00 0.00
2:53 pm 14:53 Sunny 96 35.6 47 8.3 19 19 Calm 29.76 1008 10 16 0.00 0.00
3:53 pm 15:53 Sunny 100 37.8 44 6.7 15 15 NW 3 6 29.73 1007 10 16 0.00 0.00
4:53 pm 16:53 Sunny 102 38.9 44 6.7 14 14 Calm 29.70 1006 10 16 0.00 0.00
5:53 pm 17:53 Sunny 100 37.8 44 6.7 15 15 SW 8 13 29.70 1006 10 16 0.00 0.00
6:53 pm 18:53 Sunny 99 37.2 47 8.3 17 17 S 8 13 29.68 1005 10 16 0.00 0.00
7:53 pm 19:53 Sunny 95 35 50 10 22 22 Calm 29.70 1006 10 16 0.00 0.00
8:53 pm 20:53 Clear 91 32.8 52 11.1 26 26 NNE 8 13 29.72 1006 10 16 0.00 0.00
9:53 pm 21:53 Clear 90 32.2 53 11.7 28 28 NNE 7 11 29.78 1008 10 16 0.00 0.00
10:53 pm 22:53 Clear 88 31.1 49 9.4 26 26 N 8 13 29.75 1007 10 16 0.00 0.00
11:53 pm 23:53 Clear 88 31.1 50 10 27 27 N 9 15 29.75 1007 10 16 0.00 0.00

Powered by AerisWeather